Погода в Селе Льва Толстого

Россия / Калужская область     54°36′25″N   36°02′29″E
темп.,
°C
ветер,
м/с
пор.,
м/с
влажн.,
%
обл.,
%
осадки,
мм/ч
давл.,
гПа
погр.,
м
6 августа, пт
пт600:00+15ююв2281100 0.0 101334
03:00+15ю2391100 0.5 101258
06:00+15юв369499 0.3 1012129
09:00+17ююв3987100 0.3 1011298
12:00+17вюв3788100 0.1 1011260
15:00+26юв4750100 0.1 10091162
18:00+27вюв245362 0.0 1007347
21:00+21в5117093 0.0 1006208
7 августа, сб
сб700:00+19вюв3870100 0.0 1005183
03:00+18юв2381100 0.0 100645
06:00+17ююз3490100 0.0 1007106
09:00+22ююз237288 0.1 1008394
12:00+26ю5858100 0.0 10081546
15:00+26ююв6763100 0.2 1008914
18:00+23ю41081100 3.0 1009467
21:00+19юз2293100 7.2 101027
8 августа, вс
вс800:00+17з3588100 1.1 101282
03:00+14зюз3490100 1.1 101359
06:00+14юз3591100 0.0 1014117
09:00+18з3577100 0.0 1015378
12:00+23зюз33590 0.0 1015940
15:00+25юз34530 0.0 10151324
18:00+25зюз23571 0.0 10161397
21:00+19сз22755 0.0 101711
9 августа, пн
пн900:00+17ссв11875 0.0 101811
03:00+16всв11877 0.0 101911
06:00+16в11875 0.0 101911
09:00+22вюв11650 0.0 1019323
12:00+27ююв22500 0.0 10191192
15:00+29ююз23460 0.0 10181520
18:00+28зсз225242 0.0 1017452
21:00+22с2269100 0.1 101822
10 августа, вт
вт1000:00+19в22867 1.4 101812
03:00+17ююв33793 1.7 101836
06:00+18в0078100 0.1 101811
09:00+22юв41066100 0.1 1018554
12:00+23юв5762100 0.0 1018864
15:00+20вюв3577100 0.0 1018476
18:00+20вюв358383 0.0 1017302
21:00+18всв2390100 0.0 101760